Weather Roundup
Issued by NWS Chicago, IL

Home | Current Version | Previous Version | Graphics & Text | Print | Product List | Glossary On
Versions: 1 2 3 4 5 6 7 8 9 10 11 12 13 14 15 16 17 18 19 20 21 22 23 24 25 26 27 28 29 30 31 32 33 34 35 36 37 38 39 40 41 42 43 44 45 46 47 48 49 50
000
NZUS59 KLOT 162010
HRRLOT

CHICAGO AREA WEATHER ROUNDUP
NATIONAL WEATHER SERVICE CHICAGO/ROMEOVILLE IL
300 PM CDT WED APR 16 2014

NOTE: "FAIR" INDICATES FEW OR NO CLOUDS BELOW 12,000 FEET WITH NO
SIGNIFICANT WEATHER AND/OR OBSTRUCTIONS TO VISIBILITY.

* THESE STATIONS ARE NOT UNDER NWS QUALITY CONTROL. THEY ALSO MAY NOT
  REPORT WEATHER SUCH AS PRECIPITATION OR FOG.

ILZ005-006-012>014-019>023-162100-
NORTHEAST ILLINOIS

CITY           SKY/WX    TMP DP  RH WIND       PRES   REMARKS
OHARE          PTSUNNY   51  25  36 SE24G32   30.19F
MIDWAY         PTSUNNY   51  25  36 S21G30    30.20F
AURORA         MOSUNNY   52  28  39 S29G37    30.16F
LANSING*       PTSUNNY   49  24  37 S20G25    30.23F
JOLIET*        PTSUNNY   51  25  36 S20G26    30.19F
WAUKEGAN       MOSUNNY   44  27  51 SE23G31   30.19F
DUPAGE AIRPORT MOSUNNY   52  26  36 S22G33    30.16F
WHEELING       MOSUNNY   51  26  37 SE22G31   30.20F
KANKAKEE*      MOSUNNY   52  28  39 SE18G28   30.21F
MORRIS*        MOSUNNY   53  22  30 S21G31    30.17F
LEWIS AIRPORT* PTSUNNY   50  25  37 S22G30    30.18F
NORTHERLY IS     N/A     48  30  50 SE23        N/A
$$

WIZ051-052-058>065-066-070>072-162100-
SOUTHEAST WISCONSIN

CITY           SKY/WX    TMP DP  RH WIND       PRES   REMARKS
MILWAUKEE      PTSUNNY   44  27  51 SE23G35   30.20F
KENOSHA*       SUNNY     46  28  49 SE25G36   30.19F
RACINE*        SUNNY     43  27  53 SE21G30   30.22F
BURLINGTON     SUNNY     49  26  39 S23G30    30.15F
WAUKESHA       MOSUNNY   45  28  53 SE20G28   30.17F
WEST BEND      PTSUNNY   41  27  56 SE18G24   30.17F
$$

INZ001>003-010>013-019-020-162100-
NORTHWEST INDIANA

CITY           SKY/WX    TMP DP  RH WIND       PRES   REMARKS
GARY*          PTSUNNY   50  21  32 SE17G35   30.23F
MICHIGAN CITY* NOT AVBL
RENSSELAER*    NOT AVBL
VALPARAISO     MOSUNNY   47  19  33 SE18G28   30.25F
$$

LMZ740>746-162100-
SOUTHERN LAKE MICHIGAN

STATION/POSITION TIME  SKY/WX   TEMP WIND        PRES    VSBY
                                AIR  DIR/SP/G
                 (UTC)          (F)  (DEG/KT/KT) (MB)    (MI)
HARRISON CRIB    2000            44  160/ 19/ 24   N/A
BURNHAM HARBOR   2000            48  120/ 16/ 22   N/A
CALUMET HARBOR   2000            47  150/ 17/ 23 1024.0F
BURNS HARBOR     NOT AVBL
MICHIGAN CITY    2000            46  120/ 17/ 26   N/A
$$

ABBREVIATIONS USED IN REMARKS
   TC - TEMPERATURE IN CELSIUS
  WCI - WIND CHILL INDEX
   HX - HEAT INDEX
  VSB - VISIBILITY
$$



USA.gov is the U.S. government's official web portal to all federal, state and local government web resources and services.